K4AXV-13 Weather Reports


time (UTC)temp
C
wind
direction
speed
KPH
gust
KPH
rain 1hr
cm
rain 24hr
cm
rain mn
cm
humidity
%
barometer
mb
20260504214244 22 39 4.8 0.0 0.00 0.00 0.00
20260504213745 22 339 6.4 9.7 0.00 0.00 0.00
20260504213243 22 271 6.4 0.0 0.00 0.00 0.00
20260504212744 22 134 8.0 6.4 0.00 0.00 0.00
20260504212243 22 77 3.2 3.2 0.00 0.00 0.00
20260504211744 22 25 4.8 3.2 0.00 0.00 0.00
20260504211242 22 108 8.0 6.4 0.00 0.00 0.00
20260504210743 22 129 3.2 4.8 0.00 0.00 0.00
20260504210242 22 25 3.2 4.8 0.00 0.00 0.00
20260504205743 22 113 6.4 3.2 0.00 0.00 0.00
20260504205241 22 124 9.7 8.0 0.00 0.00 0.00
20260504204241 22 128 9.7 14.5 0.00 0.00 0.00
20260504203742 23 307 8.0 9.7 0.00 0.00 0.00
20260504201741 23 79 8.0 8.0 0.00 0.00 0.00
20260504195740 23 132 4.8 14.5 0.00 0.00 0.00
20260504193739 24 98 4.8 4.8 0.00 0.00 0.00
20260504191234 24 90 4.8 8.0 0.00 0.00 0.00
20260504190736 23 118 11.3 14.5 0.00 0.00 0.00
20260504185735 23 301 14.5 12.9 0.00 0.00 0.00
20260504182233 25 305 4.8 8.0 0.00 0.00 0.00
20260504181734 24 135 9.7 3.2 0.00 0.00 0.00
20260504174229 25 127 4.8 6.4 0.00 0.00 0.00
20260504173730 26 179 4.8 1.6 0.00 0.00 0.00
20260504173228 26 41 6.4 1.6 0.00 0.00 0.00
20260504172730 25 172 6.4 0.0 0.00 0.00 0.00
20260504171729 25 128 1.6 0.0 0.00 0.00 0.00
20260504170729 25 52 1.6 0.0 0.00 0.00 0.00
20260504170227 25 128 9.7 4.8 0.00 0.00 0.00
20260504160225 26 316 0.0 6.4 0.00 0.00 0.00
20260504150724 21 297 4.8 6.4 0.00 0.00 0.00
20260504150223 21 293 1.6 8.0 0.00 0.00 0.00
20260504141221 19 14 0.0 6.4 0.00 0.00 0.00
20260504140722 18 322 1.6 0.0 0.00 0.00 0.00
20260504140259 18 284 1.6 8.0 0.00 0.00 0.00
20260504130216 16 294 1.6 1.6 0.00 0.00 0.00
20260504110712 11 194 0.0 0.0 0.00 0.00 0.00
20260504110210 11 194 0.0 0.0 0.00 0.00 0.00
20260504100206 10 194 0.0 0.0 0.00 0.00 0.00
20260504081704 10 194 0.0 0.0 0.00 0.00 0.00
20260504081203 10 194 0.0 0.0 0.00 0.00 0.00
20260504080704 10 194 0.0 0.0 0.00 0.00 0.00
20260504080202 10 194 0.0 0.0 0.00 0.00 0.00
20260504070158 11 194 0.0 0.0 0.00 0.00 0.00
20260504050656 11 194 0.0 0.0 0.00 0.00 0.00
20260504050154 11 194 0.0 0.0 0.00 0.00 0.00
20260504045655 11 194 0.0 0.0 0.00 0.00 0.00
20260504045154 11 194 0.0 0.0 0.00 0.00 0.00
20260504044655 11 194 0.0 0.0 0.00 0.00 0.00
20260504044153 11 194 0.0 0.0 0.00 0.00 0.00
20260504043654 11 194 0.0 0.0 0.00 0.00 0.00
20260504043153 11 194 0.0 0.0 0.00 0.00 0.00
20260504042654 11 194 0.0 0.0 0.00 0.00 0.00
20260504041653 12 194 0.0 0.0 0.00 0.00 0.00
20260504041152 11 194 0.0 0.0 0.00 0.00 0.00
20260504040653 12 194 0.0 0.0 0.00 1.78 0.00
20260504040151 12 194 0.0 0.0 0.00 1.78 0.00
20260504035653 12 194 0.0 0.0 0.00 1.78 0.00
20260504034652 12 194 0.0 0.0 0.00 1.78 0.00
20260504034151 12 194 0.0 0.0 0.00 1.78 0.00
20260504033652 12 194 0.0 0.0 0.00 1.78 0.00
20260504033150 12 194 0.0 0.0 0.00 1.78 0.00
20260504032651 12 194 0.0 0.0 0.00 1.78 0.00
20260504032149 12 194 0.0 0.0 0.00 1.78 0.00
20260504031651 12 194 0.0 0.0 0.00 1.78 0.00
20260504031149 12 194 0.0 0.0 0.00 1.78 0.00
20260504030650 12 194 0.0 0.0 0.00 1.78 0.00
20260504030148 12 194 0.0 0.0 0.00 1.78 0.00
20260504025650 12 194 0.0 0.0 0.00 1.78 0.00
20260504025148 12 194 0.0 0.0 0.00 1.78 0.00
20260504024649 12 194 0.0 0.0 0.00 1.78 0.00
20260504024147 12 194 0.0 0.0 0.00 1.78 0.00
20260504023649 12 194 0.0 0.0 0.00 1.78 0.00
20260504023147 12 194 0.0 0.0 0.00 1.78 0.00
20260504022648 12 194 0.0 0.0 0.00 1.78 0.00
20260504022146 12 194 0.0 0.0 0.00 1.78 0.00
20260504021648 13 194 0.0 0.0 0.00 1.78 0.00
20260504020647 13 194 0.0 0.0 0.00 1.78 0.00
20260504020145 13 194 0.0 0.0 0.00 1.78 0.00
20260504015645 13 194 0.0 0.0 0.00 1.78 0.00
20260504015144 13 194 0.0 0.0 0.00 1.78 0.00
20260504014645 13 194 0.0 0.0 0.00 1.78 0.00
20260504014143 13 194 0.0 0.0 0.00 1.78 0.00
20260504013643 13 194 0.0 0.0 0.00 1.78 0.00
20260504013141 14 194 0.0 0.0 0.00 1.78 0.00
20260504012642 13 194 0.0 0.0 0.00 1.78 0.00
20260504012141 14 194 0.0 0.0 0.00 1.78 0.00
20260504011640 14 194 0.0 0.0 0.00 1.78 0.00
20260504010637 14 273 1.6 0.0 0.00 1.78 0.00
20260504003133 15 342 0.0 0.0 0.00 1.78 0.00
20260504002132 16 342 0.0 0.0 0.00 1.78 0.00
20260504001633 16 342 0.0 0.0 0.00 1.78 0.00
20260504001132 16 342 0.0 0.0 0.00 1.78 0.00
20260504000632 16 342 0.0 0.0 0.00 1.78 0.00
20260504000130 16 342 0.0 0.0 0.00 1.78 0.00
20260503235631 16 342 0.0 0.0 0.00 1.78 0.00
20260503235130 17 342 0.0 0.0 0.00 1.78 0.00
20260503234631 17 335 0.0 0.0 0.00 1.78 0.00
20260503234129 17 335 0.0 0.0 0.00 1.78 0.00
20260503233631 17 204 0.0 0.0 0.00 1.78 0.00
20260503233129 17 204 1.6 0.0 0.00 1.78 0.00
20260503232630 17 235 3.2 1.6 0.00 1.78 0.00
20260503232129 17 263 3.2 0.0 0.00 1.78 0.00
20260503231629 17 7 0.0 0.0 0.00 1.78 0.00
20260503231127 17 236 0.0 0.0 0.00 1.78 0.00
20260503230127 17 311 0.0 0.0 0.00 1.78 0.00
20260503225627 18 32 4.8 0.0 0.00 1.78 0.00
20260503224627 18 21 3.2 3.2 0.00 1.78 0.00
20260503224123 18 46 3.2 1.6 0.00 1.78 0.00
20260503222622 18 203 3.2 1.6 0.00 1.78 0.00
20260503222116 18 135 0.0 8.0 0.00 1.78 0.00
20260503221617 18 158 0.0 4.8 0.00 1.78 0.00
20260503215109 19 333 3.2 8.0 0.00 1.78 0.00